Location: Lombard
(41.8800°N, 88.0080°W)
Time: 23:07:32
(UTC-05:00)

Transit 2A - Pass Details

Date: 13 February 2023
Orbit: 591 x 964 km, 66.7° (Epoch: 20 March)

Event Time Altitude Azimuth Distance (km) Brightness Sun altitude
Rises 21:45:30 0° 337° (NNW) 3,508 9.9 -48.1°
Enters shadow 21:47:16 - 344° (NNW) 2,956 9.4 -48.4°
Reaches altitude 10° 21:48:27 10° 350° (N) 2,615 - -48.6°
Maximum altitude 21:53:26 25° 44° (NE) 1,821 - -49.3°
Drops below altitude 10° 21:58:32 10° 98° (E) 2,697 - -50.1°
Sets 22:01:37 0° 111° (ESE) 3,642 - -50.5°
